User: anonymous   Login
Location: Seoul
(37.5665°N, 126.9780°E)
Time: 07:06:34
(UTC+09:00)
Language:

ISS - Orbit

View from above orbital plane
View from above orbital plane
View from above satellite
View from above satellite

Ground track
Ground track

The orbit data is extracted from the following two-line orbital elements,

1 25544U 98067A   21206.68111794  .00003103  00000-0  64728-4 0  9996
2 25544  51.6427 152.3667 0001245 198.6826 223.5084 15.48864827294562
Epoch (UTC): 25 July 2021 16:20:48
Eccentricity: 0.0001245
inclination: 51.6427°
perigee height: 419 km
apogee height: 421 km
right ascension of ascending node: 152.3667°
argument of perigee: 198.6826°
revolutions per day: 15.48864827
mean anomaly at epoch: 223.5084°
orbit number at epoch: 29456

The dashed part of the orbit path shows where the satellite is in the earth's shadow,  

DLR